User: anonymous
Location: Red Shale Campground
(45.5700°N, 106.1600°W)
Time: 04:16:01
(UTC-06:00)
Language:

FENGYUN 3A - Orbit

View from above orbital plane
View from above orbital plane
View from above satellite
View from above satellite

Ground track
Ground track

The orbit data is extracted from the following two-line orbital elements,

1 32958U 08026A   14110.74932891  .00000161  00000-0  96511-4 0  9111
2 32958 098.5607 171.5082 0010178 027.1910 332.9786 14.19438347305690
Epoch (UTC): 20 April 2014 17:59:02
Eccentricity: 0.0010178
inclination: 98.5607°
perigee height: 820 km
apogee height: 834 km
right ascension of ascending node: 171.5082°
argument of perigee: 27.1910°
revolutions per day: 14.19438347
mean anomaly at epoch: 332.9786°
orbit number at epoch: 30569

The dashed part of the orbit path shows where the satellite is in the earth's shadow,  

DLR